USTRANSCOM 7587


BGTL
Thule Air Base
Pituffik, GL
KWRI
Joint Base McGuire Dix Lakehurst
Wrightstown, US

Activity Log

Date Flight Route Aircraft Duration
01/10/2019 CMB807 Not Available B752 5h 24m

Route Details

Aircraft Information
Primary: Boeing 757-200SF
Backup: Not Available
Route Data
Distance: 2201nm
Sched. Duration: 4h 50m
Avg. Duration: 5h 24m (+74m)
Times Flown: 1
Recm'd Route: Not Available
Planned Altitude: 37,000ft
Origin Wx: BGTL 080556Z AUTO 12006KT 9999 CLR 04/04 A2960 RMK AO2 SLP007 T00370037 10042 20036 TSNO $
Dest. Wx: KWRI 080601Z 35005KT 9SM SCT004 OVC031 21/21 A3013 RMK AO2A SLP202 $
Notes: USTRANSCOM CONTRACT FLIGHT

Financial History
Total Freight: 64,329lbs
Average Load: 64,329lbs/flt
Fuel Used: 46,555lbs
Avg. Fuel Used: 46,555lbs/flt
Fuel Expense: $37,244
Avg. Fuel Expense: $37,244
Avg. Fuel Cost: $0.80/lbs
Total Gross Income: $160,823
Pilot Pay: $149
Total Expenses: $17,421
Total Revenue: $104,867
Average Revenue: $160,822.50